Total_Precipitation_Accumulation
0.01 0.05 0.34 0.53 0.62 0.49 0.15 0.13 0.19 0.17 0.15 0.21 0.25 0.26 0.25 0.26 0.24 0.23 0.12 0.13 0.20 0.22 0.28 0.32 0.27 0.34 0.62 0.66 0.60 0.24 0.11 0.07 0.10 0.20 0.11 0.10 0.10 0.10 0.10 0.07 0.10 0.09 0.11
0.01 0.06 0.31 0.56 0.54 0.64 0.67 0.37 0.26 0.20 0.29 0.33 0.27 0.19 0.20 0.32 0.29 0.20 0.12 0.14 0.20 0.21 0.20 0.35 0.42 0.43 0.40 0.26 0.18 0.06 0.04 0.03 0.01 0.01 0.01 0.04 0.07 0.11 0.11 0.08 0.18 0.17 0.17
0.01 0.09 0.19 0.53 0.41 0.38 0.57 0.64 0.42 0.27 0.16 0.16 0.23 0.26 0.31 0.28 0.14 0.09 0.08 0.15 0.18 0.21 0.27 0.41 0.34 0.19 0.06 0.04 0.03 0.05 0.05 0.05 0.04 0.04 0.05 0.14 0.15 0.27 0.24 0.24 0.41 0.34 0.31
0.03 0.12 0.17 0.44 0.48 0.42 0.41 0.43 0.52 0.46 0.25 0.19 0.33 0.45 0.37 0.22 0.10 0.11 0.17 0.23 0.21 0.18 0.19 0.12 0.06 0.03 0.02 0.01 0.02 0.03 0.05 0.07 0.04 0.04 0.05 0.02 0.08 0.42 0.20 0.19 0.19 0.16 0.14
0.08 0.13 0.18 0.40 0.49 0.40 0.26 0.28 0.33 0.42 0.43 0.35 0.37 0.54 0.49 0.19 0.10 0.14 0.28 0.40 0.14 0.09 0.09 0.05 0.04 0.04 0.03 0.02 0.02 0.03 0.04 0.04 0.01 0.00 0.01 0.01 0.12 0.29 0.14 0.17 0.19 0.22 0.21
0.08 0.15 0.28 0.49 0.62 0.43 0.21 0.19 0.28 0.32 0.36 0.38 0.56 0.60 0.49 0.19 0.19 0.27 0.38 0.25 0.08 0.05 0.05 0.04 0.03 0.04 0.06 0.05 0.04 0.03 0.05 0.07 0.00 0.00 0.00 0.03 0.07 0.16 0.15 0.27 0.35 0.33 0.26
0.11 0.16 0.27 0.66 0.71 0.49 0.32 0.27 0.35 0.34 0.33 0.34 0.46 0.62 0.56 0.26 0.22 0.31 0.31 0.14 0.13 0.06 0.06 0.06 0.06 0.03 0.09 0.07 0.04 0.04 0.10 0.04 0.00 0.01 0.01 0.02 0.06 0.12 0.16 0.22 0.27 0.21 0.23
0.13 0.19 0.35 0.48 0.48 0.51 0.49 0.35 0.37 0.37 0.35 0.41 0.53 0.66 0.64 0.54 0.39 0.31 0.26 0.16 0.17 0.06 0.05 0.07 0.09 0.06 0.06 0.06 0.06 0.10 0.06 0.01 0.00 0.01 0.01 0.02 0.09 0.15 0.18 0.19 0.25 0.37 0.38
0.45 0.42 0.53 0.47 0.35 0.34 0.49 0.41 0.33 0.35 0.35 0.46 0.54 0.53 0.32 0.34 0.53 0.41 0.24 0.15 0.17 0.22 0.10 0.08 0.08 0.07 0.06 0.06 0.07 0.06 0.02 0.00 0.00 0.01 0.01 0.02 0.09 0.16 0.21 0.26 0.32 0.41 0.37
1.05 0.73 0.54 0.46 0.27 0.19 0.20 0.24 0.24 0.25 0.27 0.35 0.38 0.24 0.13 0.09 0.16 0.52 0.53 0.10 0.15 0.22 0.15 0.14 0.12 0.11 0.09 0.08 0.05 0.05 0.03 0.01 0.01 0.01 0.01 0.04 0.16 0.26 0.31 0.36 0.37 0.36 0.48
1.74 1.61 1.03 0.61 0.27 0.13 0.16 0.19 0.17 0.24 0.37 0.37 0.29 0.19 0.10 0.06 0.06 0.16 0.33 0.21 0.09 0.12 0.12 0.15 0.14 0.14 0.08 0.03 0.02 0.03 0.03 0.01 0.01 0.01 0.02 0.09 0.15 0.22 0.27 0.23 0.21 0.21 0.23
1.99 1.66 1.80 1.49 0.81 0.37 0.22 0.15 0.11 0.19 0.27 0.22 0.22 0.20 0.11 0.05 0.06 0.10 0.14 0.21 0.08 0.05 0.06 0.09 0.12 0.11 0.06 0.03 0.02 0.01 0.01 0.01 0.01 0.00 0.01 0.03 0.08 0.17 0.23 0.24 0.19 0.18 0.17
2.80 1.72 1.70 1.49 1.27 0.65 0.52 0.41 0.15 0.09 0.14 0.18 0.19 0.20 0.16 0.09 0.06 0.11 0.19 0.19 0.10 0.04 0.06 0.06 0.06 0.05 0.03 0.04 0.02 0.02 0.01 0.01 0.00 0.00 0.01 0.02 0.04 0.17 0.32 0.30 0.27 0.25 0.22
3.32 2.35 1.54 1.25 1.14 0.97 0.81 0.56 0.27 0.25 0.16 0.16 0.16 0.18 0.12 0.09 0.06 0.06 0.10 0.15 0.17 0.08 0.07 0.09 0.09 0.09 0.13 0.11 0.09 0.05 0.04 0.03 0.02 0.02 0.02 0.01 0.03 0.07 0.19 0.29 0.35 0.30 0.27
1.65 1.85 1.83 1.29 1.03 0.91 0.87 0.72 0.27 0.18 0.22 0.16 0.19 0.17 0.12 0.05 0.03 0.05 0.05 0.07 0.08 0.08 0.06 0.09 0.09 0.10 0.10 0.14 0.16 0.15 0.11 0.11 0.13 0.16 0.09 0.08 0.08 0.05 0.05 0.10 0.17 0.20 0.25
1.41 1.52 1.83 1.54 1.08 1.33 1.15 0.90 0.67 0.27 0.26 0.26 0.27 0.18 0.21 0.11 0.05 0.06 0.05 0.06 0.06 0.06 0.04 0.05 0.07 0.07 0.07 0.08 0.06 0.10 0.12 0.13 0.13 0.14 0.16 0.15 0.16 0.12 0.11 0.17 0.19 0.24 0.29
1.27 2.03 2.05 1.47 0.97 0.82 1.43 1.28 0.71 0.60 0.40 0.34 0.38 0.50 0.36 0.37 0.23 0.16 0.14 0.12 0.10 0.13 0.14 0.10 0.06 0.06 0.05 0.05 0.05 0.04 0.07 0.06 0.11 0.12 0.11 0.09 0.09 0.12 0.12 0.14 0.19 0.26 0.32
1.22 1.70 2.24 1.59 0.79 0.62 0.86 1.44 1.15 0.71 0.43 0.28 0.29 0.40 0.44 0.44 0.63 0.43 0.33 0.21 0.20 0.26 0.33 0.25 0.16 0.13 0.09 0.08 0.07 0.04 0.05 0.04 0.04 0.05 0.06 0.09 0.11 0.13 0.11 0.08 0.12 0.14 0.21
0.91 1.21 1.46 1.39 0.55 0.22 0.36 0.96 1.41 0.95 0.49 0.29 0.27 0.27 0.41 0.44 0.50 0.86 0.78 0.55 0.36 0.39 0.43 0.37 0.25 0.18 0.13 0.12 0.09 0.11 0.12 0.11 0.10 0.09 0.04 0.03 0.04 0.05 0.07 0.10 0.10 0.09 0.12
1.34 1.03 1.38 1.40 0.89 0.45 0.57 0.88 1.23 1.12 0.75 0.37 0.29 0.21 0.26 0.27 0.34 0.51 0.71 0.76 0.82 0.67 0.43 0.40 0.31 0.24 0.17 0.17 0.20 0.17 0.13 0.11 0.08 0.08 0.05 0.05 0.05 0.07 0.06 0.07 0.09 0.07 0.11
2.15 1.38 1.17 1.20 0.94 0.68 0.52 0.58 0.83 0.62 0.97 0.69 0.48 0.43 0.37 0.46 0.48 0.66 0.79 0.65 0.60 0.56 0.45 0.52 0.62 0.63 0.48 0.59 0.59 0.31 0.21 0.14 0.09 0.07 0.06 0.05 0.05 0.07 0.08 0.12 0.15 0.16 0.16
1.57 1.54 1.55 0.90 0.66 0.51 0.46 0.50 1.01 1.04 1.05 0.97 0.98 0.83 0.63 0.75 0.73 0.62 0.73 0.82 0.73 0.61 0.56 0.57 0.74 0.87 0.77 1.09 1.00 0.73 0.43 0.21 0.08 0.06 0.08 0.08 0.08 0.13 0.13 0.17 0.19 0.19 0.20
1.27 1.19 1.39 1.75 1.29 0.96 1.09 1.46 1.49 1.68 1.68 1.63 1.50 1.17 1.21 1.44 1.58 1.30 1.32 1.24 1.31 1.41 1.26 1.30 1.29 1.44 1.37 1.42 1.36 1.34 1.01 0.49 0.20 0.14 0.12 0.14 0.18 0.18 0.18 0.22 0.23 0.25 0.29
1.66 1.58 1.83 2.14 1.85 1.29 1.33 1.48 1.17 1.49 1.71 1.72 1.49 1.64 1.91 2.02 2.12 2.06 2.04 2.46 2.35 2.03 1.88 1.83 1.77 1.62 1.70 1.68 1.68 1.54 1.59 1.44 1.23 0.83 0.48 0.40 0.40 0.34 0.31 0.28 0.25 0.26 0.30
2.09 1.91 1.89 2.19 1.96 1.64 1.65 1.53 1.54 1.36 1.51 1.56 1.25 1.19 1.27 1.38 1.29 1.35 1.39 1.58 1.85 1.81 1.74 1.61 1.54 1.42 1.35 1.22 1.17 1.16 1.16 1.29 1.44 1.38 0.83 0.46 0.40 0.32 0.30 0.33 0.37 0.41 0.49
1.97 1.38 1.58 1.65 1.49 1.42 1.60 1.53 1.68 1.27 1.32 1.48 1.43 1.17 1.03 0.99 1.15 1.01 0.97 0.94 0.92 0.93 1.13 1.08 1.10 1.11 1.01 0.93 0.79 0.79 0.78 0.84 0.89 1.09 1.00 0.73 0.60 0.37 0.30 0.28 0.33 0.35 0.38